ORBCOMM FM09 [+]

Last updated on July 6, 2021, 3:36 p.m. UTC

1 25116U 97084E   21186.88917835  .00000067  00000-0  67036-4 0  9999
2 25116  45.0182  44.1711 0006200 133.1054 227.0315 14.39227779233403
UTC
Height (km)
Latitude
Longitude
Inclination
Orbital Period
UTC large
Height (km)
Speed (km/s)
/
Latitude / Longitude
Inclination (degrees)
Orbital Period (minutes)
Azimuth
Elevation
Range (km)
Doppler Factor
iOS Compass Heading
iOS Angle